"FRM_AIS_EDR_2077.DAT           ",2005-08-27T07:27:55.24 ,"1/0073207670.07934",    0,    0,  274896,"AIS","B1","B1","B0","B0","PISd",0,0,0,0,"B1", 0,15,   0, 0,    0,"AIS","N/A    ","OK ","OK ",    001179.580,    -068.149,    0153.690,    0014.367,    0048.336
"FRM_AIS_EDR_2077.DAT           ",2005-08-27T07:28:02.78 ,"1/0073207677.43533",    0,    1,  274896,"AIS","B1","B1","B0","B0","PISd",0,0,0,0,"B1", 0,15,   0, 0,    0,"AIS","N/A    ","OK ","OK ",    001169.187,    -067.825,    0153.797,    0014.376,    0048.145
"FRM_AIS_EDR_2077.DAT           ",2005-08-27T07:28:10.32 ,"1/0073207685.13597",    0,    2,  274896,"AIS","B1","B1","B0","B0","PISd",0,0,0,0,"B1", 0,15,   0, 0,    0,"AIS","N/A    ","OK ","OK ",    001158.826,    -067.500,    0153.901,    0014.385,    0047.954
"FRM_AIS_EDR_2077.DAT           ",2005-08-27T07:28:17.87 ,"1/0073207692.49196",    0,    3,  274896,"AIS","B1","B1","B0","B0","PISd",0,0,0,0,"B1", 0,15,   0, 0,    0,"AIS","N/A    ","OK ","OK ",    001148.496,    -067.172,    0154.002,    0014.394,    0047.763
"FRM_AIS_EDR_2077.DAT           ",2005-08-27T07:28:25.41 ,"1/0073207700.19259",    0,    4,  274896,"AIS","B1","B1","B0","B0","PISd",0,0,0,0,"B1", 0,15,   0, 0,    0,"AIS","N/A    ","OK ","OK ",    001138.197,    -066.844,    0154.101,    0014.402,    0047.573
"FRM_AIS_EDR_2077.DAT           ",2005-08-27T07:28:32.95 ,"1/0073207707.54859",    0,    5,  274896,"AIS","B1","B1","B0","B0","PISd",0,0,0,0,"B1", 0,15,   0, 0,    0,"AIS","N/A    ","OK ","OK ",    001127.931,    -066.514,    0154.196,    0014.411,    0047.383
"FRM_AIS_EDR_2077.DAT           ",2005-08-27T07:28:40.49 ,"1/0073207715.24922",    0,    6,  274896,"AIS","B1","B1","B0","B0","PISd",0,0,0,0,"B1", 0,15,   0, 0,    0,"AIS","N/A    ","OK ","OK ",    001117.699,    -066.182,    0154.288,    0014.419,    0047.193
"FRM_AIS_EDR_2077.DAT           ",2005-08-27T07:28:48.04 ,"1/0073207722.60521",    0,    7,  274896,"AIS","B1","B1","B0","B0","PISd",0,0,0,0,"B1", 0,15,   0, 0,    0,"AIS","N/A    ","OK ","OK ",    001107.499,    -065.848,    0154.378,    0014.427,    0047.004
"FRM_AIS_EDR_2077.DAT           ",2005-08-27T07:28:55.58 ,"1/0073207730.30585",    0,    8,  274896,"AIS","B1","B1","B0","B0","PISd",0,0,0,0,"B1", 0,15,   0, 0,    0,"AIS","N/A    ","OK ","OK ",    001097.333,    -065.513,    0154.466,    0014.435,    0046.815
"FRM_AIS_EDR_2077.DAT           ",2005-08-27T07:29:03.12 ,"1/0073207738.00648",    0,    9,  274896,"AIS","B1","B1","B0","B0","PISd",0,0,0,0,"B1", 0,15,   0, 0,    0,"AIS","N/A    ","OK ","OK ",    001087.202,    -065.177,    0154.550,    0014.442,    0046.626
"FRM_AIS_EDR_2077.DAT           ",2005-08-27T07:29:10.67 ,"1/0073207745.36247",    0,   10,  274896,"AIS","B1","B1","B0","B0","PISd",0,0,0,0,"B1", 0,15,   0, 0,    0,"AIS","N/A    ","OK ","OK ",    001077.106,    -064.838,    0154.633,    0014.450,    0046.438
"FRM_AIS_EDR_2077.DAT           ",2005-08-27T07:29:18.21 ,"1/0073207753.06310",    0,   11,  274896,"AIS","B1","B1","B0","B0","PISd",0,0,0,0,"B1", 0,15,   0, 0,    0,"AIS","N/A    ","OK ","OK ",    001067.045,    -064.498,    0154.713,    0014.457,    0046.250
"FRM_AIS_EDR_2077.DAT           ",2005-08-27T07:29:25.75 ,"1/0073207760.41910",    0,   12,  274896,"AIS","B1","B1","B0","B0","PISd",0,0,0,0,"B1", 0,15,   0, 0,    0,"AIS","N/A    ","OK ","OK ",    001057.020,    -064.157,    0154.791,    0014.464,    0046.063
"FRM_AIS_EDR_2077.DAT           ",2005-08-27T07:29:33.30 ,"1/0073207768.11973",    0,   13,  274896,"AIS","B1","B1","B0","B0","PISd",0,0,0,0,"B1", 0,15,   0, 0,    0,"AIS","N/A    ","OK ","OK ",    001047.032,    -063.814,    0154.867,    0014.472,    0045.876
"FRM_AIS_EDR_2077.DAT           ",2005-08-27T07:29:40.84 ,"1/0073207775.47572",    0,   14,  274896,"AIS","B1","B1","B0","B0","PISd",0,0,0,0,"B1", 0,15,   0, 0,    0,"AIS","N/A    ","OK ","OK ",    001037.080,    -063.469,    0154.940,    0014.479,    0045.690
"FRM_AIS_EDR_2077.DAT           ",2005-08-27T07:29:48.38 ,"1/0073207783.17636",    0,   15,  274896,"AIS","B1","B1","B0","B0","PISd",0,0,0,0,"B1", 0,15,   0, 0,    0,"AIS","N/A    ","OK ","OK ",    001027.166,    -063.123,    0155.012,    0014.485,    0045.504
"FRM_AIS_EDR_2077.DAT           ",2005-08-27T07:29:55.93 ,"1/0073207790.53235",    0,   16,  274896,"AIS","B1","B1","B0","B0","PISd",0,0,0,0,"B1", 0,15,   0, 0,    0,"AIS","N/A    ","OK ","OK ",    001017.291,    -062.775,    0155.082,    0014.492,    0045.320
"FRM_AIS_EDR_2077.DAT           ",2005-08-27T07:30:03.47 ,"1/0073207798.23298",    0,   17,  274896,"AIS","B1","B1","B0","B0","PISd",0,0,0,0,"B1", 0,15,   0, 0,    0,"AIS","N/A    ","OK ","OK ",    001007.454,    -062.425,    0155.149,    0014.499,    0045.135
"FRM_AIS_EDR_2077.DAT           ",2005-08-27T07:30:11.01 ,"1/0073207805.58898",    0,   18,  274896,"AIS","B1","B1","B0","B0","PISd",0,0,0,0,"B1", 0,15,   0, 0,    0,"AIS","N/A    ","OK ","OK ",    000997.656,    -062.074,    0155.215,    0014.505,    0044.952
"FRM_AIS_EDR_2077.DAT           ",2005-08-27T07:30:18.56 ,"1/0073207813.28961",    0,   19,  274896,"AIS","B1","B1","B0","B0","PISd",0,0,0,0,"B1", 0,15,   0, 0,    0,"AIS","N/A    ","OK ","OK ",    000987.897,    -061.721,    0155.279,    0014.511,    0044.769
"FRM_AIS_EDR_2077.DAT           ",2005-08-27T07:30:26.10 ,"1/0073207820.64560",    0,   20,  274896,"AIS","B1","B1","B0","B0","PISd",0,0,0,0,"B1", 0,15,   0, 0,    0,"AIS","N/A    ","OK ","OK ",    000978.180,    -061.367,    0155.342,    0014.518,    0044.587
"FRM_AIS_EDR_2077.DAT           ",2005-08-27T07:30:33.64 ,"1/0073207828.34624",    0,   21,  274896,"AIS","B1","B1","B0","B0","PISd",0,0,0,0,"B1", 0,15,   0, 0,    0,"AIS","N/A    ","OK ","OK ",    000968.503,    -061.011,    0155.402,    0014.524,    0044.406
"FRM_AIS_EDR_2077.DAT           ",2005-08-27T07:30:41.19 ,"1/0073207836.04687",    0,   22,  274896,"AIS","B1","B1","B0","B0","PISd",0,0,0,0,"B1", 0,15,   0, 0,    0,"AIS","N/A    ","OK ","OK ",    000958.867,    -060.653,    0155.461,    0014.529,    0044.226
"FRM_AIS_EDR_2077.DAT           ",2005-08-27T07:30:48.73 ,"1/0073207843.40286",    0,   23,  274896,"AIS","B1","B1","B0","B0","PISd",0,0,0,0,"B1", 0,15,   0, 0,    0,"AIS","N/A    ","OK ","OK ",    000949.274,    -060.294,    0155.519,    0014.535,    0044.046
"FRM_AIS_EDR_2077.DAT           ",2005-08-27T07:30:56.27 ,"1/0073207851.10350",    0,   24,  274896,"AIS","B1","B1","B0","B0","PISd",0,0,0,0,"B1", 0,15,   0, 0,    0,"AIS","N/A    ","OK ","OK ",    000939.723,    -059.933,    0155.574,    0014.541,    0043.868
"FRM_AIS_EDR_2077.DAT           ",2005-08-27T07:31:03.82 ,"1/0073207858.45949",    0,   25,  274896,"AIS","B1","B1","B0","B0","PISd",0,0,0,0,"B1", 0,15,   0, 0,    0,"AIS","N/A    ","OK ","OK ",    000930.215,    -059.570,    0155.629,    0014.547,    0043.691
"FRM_AIS_EDR_2077.DAT           ",2005-08-27T07:31:11.36 ,"1/0073207866.16012",    0,   26,  274896,"AIS","B1","B1","B0","B0","PISd",0,0,0,0,"B1", 0,15,   0, 0,    0,"AIS","N/A    ","OK ","OK ",    000920.751,    -059.206,    0155.682,    0014.553,    0043.514
"FRM_AIS_EDR_2077.DAT           ",2005-08-27T07:31:18.90 ,"1/0073207873.51612",    0,   27,  274896,"AIS","B1","B1","B0","B0","PISd",0,0,0,0,"B1", 0,15,   0, 0,    0,"AIS","N/A    ","OK ","OK ",    000911.331,    -058.840,    0155.733,    0014.558,    0043.339
"FRM_AIS_EDR_2077.DAT           ",2005-08-27T07:31:26.45 ,"1/0073207881.21675",    0,   28,  274896,"AIS","B1","B1","B0","B0","PISd",0,0,0,0,"B1", 0,15,   0, 0,    0,"AIS","N/A    ","OK ","OK ",    000901.956,    -058.473,    0155.783,    0014.563,    0043.165
"FRM_AIS_EDR_2077.DAT           ",2005-08-27T07:31:33.99 ,"1/0073207888.57274",    0,   29,  274896,"AIS","B1","B1","B0","B0","PISd",0,0,0,0,"B1", 0,15,   0, 0,    0,"AIS","N/A    ","OK ","OK ",    000892.627,    -058.104,    0155.832,    0014.569,    0042.992
"FRM_AIS_EDR_2077.DAT           ",2005-08-27T07:31:41.53 ,"1/0073207896.27338",    0,   30,  274896,"AIS","B1","B1","B0","B0","PISd",0,0,0,0,"B1", 0,15,   0, 0,    0,"AIS","N/A    ","OK ","OK ",    000883.344,    -057.733,    0155.880,    0014.574,    0042.821
"FRM_AIS_EDR_2077.DAT           ",2005-08-27T07:31:49.07 ,"1/0073207903.62937",    0,   31,  274896,"AIS","B1","B1","B0","B0","PISd",0,0,0,0,"B1", 0,15,   0, 0,    0,"AIS","N/A    ","OK ","OK ",    000874.107,    -057.361,    0155.926,    0014.579,    0042.650
"FRM_AIS_EDR_2077.DAT           ",2005-08-27T07:31:56.62 ,"1/0073207911.33000",    0,   32,  274896,"AIS","B1","B1","B0","B0","PISd",0,0,0,0,"B1", 0,15,   0, 0,    0,"AIS","N/A    ","OK ","OK ",    000864.918,    -056.986,    0155.971,    0014.584,    0042.481
"FRM_AIS_EDR_2077.DAT           ",2005-08-27T07:32:04.16 ,"1/0073207919.03064",    0,   33,  274896,"AIS","B1","B1","B0","B0","PISd",0,0,0,0,"B1", 0,15,   0, 0,    0,"AIS","N/A    ","OK ","OK ",    000855.777,    -056.611,    0156.015,    0014.589,    0042.314
"FRM_AIS_EDR_2077.DAT           ",2005-08-27T07:32:11.70 ,"1/0073207926.38663",    0,   34,  274896,"AIS","B1","B1","B0","B0","PISd",0,0,0,0,"B1", 0,15,   0, 0,    0,"AIS","N/A    ","OK ","OK ",    000846.684,    -056.233,    0156.057,    0014.594,    0042.148
"FRM_AIS_EDR_2077.DAT           ",2005-08-27T07:32:19.25 ,"1/0073207934.08726",    0,   35,  274896,"AIS","B1","B1","B0","B0","PISd",0,0,0,0,"B1", 0,15,   0, 0,    0,"AIS","N/A    ","OK ","OK ",    000837.641,    -055.854,    0156.099,    0014.599,    0041.983
"FRM_AIS_EDR_2077.DAT           ",2005-08-27T07:32:26.79 ,"1/0073207941.44326",    0,   36,  274896,"AIS","B1","B1","B0","B0","PISd",0,0,0,0,"B1", 0,15,   0, 0,    0,"AIS","N/A    ","OK ","OK ",    000828.647,    -055.474,    0156.139,    0014.603,    0041.820
"FRM_AIS_EDR_2077.DAT           ",2005-08-27T07:32:34.33 ,"1/0073207949.14389",    0,   37,  274896,"AIS","B1","B1","B0","B0","PISd",0,0,0,0,"B1", 0,15,   0, 0,    0,"AIS","N/A    ","OK ","OK ",    000819.704,    -055.091,    0156.179,    0014.608,    0041.658
"FRM_AIS_EDR_2077.DAT           ",2005-08-27T07:32:41.88 ,"1/0073207956.49988",    0,   38,  274896,"AIS","B1","B1","B0","B0","PISd",0,0,0,0,"B1", 0,15,   0, 0,    0,"AIS","N/A    ","OK ","OK ",    000810.811,    -054.707,    0156.217,    0014.613,    0041.499
"FRM_AIS_EDR_2077.DAT           ",2005-08-27T07:32:49.42 ,"1/0073207964.20052",    0,   39,  274896,"AIS","B1","B1","B0","B0","PISd",0,0,0,0,"B1", 0,15,   0, 0,    0,"AIS","N/A    ","OK ","OK ",    000801.971,    -054.322,    0156.254,    0014.617,    0041.341
"FRM_AIS_EDR_2077.DAT           ",2005-08-27T07:32:56.96 ,"1/0073207971.55651",    0,   40,  274896,"AIS","B1","B1","B0","B0","PISd",0,0,0,0,"B1", 0,15,   0, 0,    0,"AIS","N/A    ","OK ","OK ",    000793.182,    -053.935,    0156.291,    0014.621,    0041.184
"FRM_AIS_EDR_2077.DAT           ",2005-08-27T07:33:04.51 ,"1/0073207979.25714",    0,   41,  274896,"AIS","B1","B1","B0","B0","PISd",0,0,0,0,"B1", 0,15,   0, 0,    0,"AIS","N/A    ","OK ","OK ",    000784.447,    -053.546,    0156.326,    0014.626,    0041.030
"FRM_AIS_EDR_2077.DAT           ",2005-08-27T07:33:12.05 ,"1/0073207986.61314",    0,   42,  274896,"AIS","B1","B1","B0","B0","PISd",0,0,0,0,"B1", 0,15,   0, 0,    0,"AIS","N/A    ","OK ","OK ",    000775.765,    -053.155,    0156.361,    0014.630,    0040.878
"FRM_AIS_EDR_2077.DAT           ",2005-08-27T07:33:19.59 ,"1/0073207994.31377",    0,   43,  274896,"AIS","B1","B1","B0","B0","PISd",0,0,0,0,"B1", 0,15,   0, 0,    0,"AIS","N/A    ","OK ","OK ",    000767.138,    -052.763,    0156.394,    0014.634,    0040.727
"FRM_AIS_EDR_2077.DAT           ",2005-08-27T07:33:27.14 ,"1/0073208002.01440",    0,   44,  274896,"AIS","B1","B1","B0","B0","PISd",0,0,0,0,"B1", 0,15,   0, 0,    0,"AIS","N/A    ","OK ","OK ",    000758.565,    -052.369,    0156.427,    0014.639,    0040.579
"FRM_AIS_EDR_2077.DAT           ",2005-08-27T07:33:34.68 ,"1/0073208009.37039",    0,   45,  274896,"AIS","B1","B1","B0","B0","PISd",0,0,0,0,"B1", 0,15,   0, 0,    0,"AIS","N/A    ","OK ","OK ",    000750.048,    -051.974,    0156.458,    0014.643,    0040.433
"FRM_AIS_EDR_2077.DAT           ",2005-08-27T07:33:42.22 ,"1/0073208017.07103",    0,   46,  274896,"AIS","B1","B1","B0","B0","PISd",0,0,0,0,"B1", 0,15,   0, 0,    0,"AIS","N/A    ","OK ","OK ",    000741.586,    -051.577,    0156.489,    0014.647,    0040.289
"FRM_AIS_EDR_2077.DAT           ",2005-08-27T07:33:49.77 ,"1/0073208024.42702",    0,   47,  274896,"AIS","B1","B1","B0","B0","PISd",0,0,0,0,"B1", 0,15,   0, 0,    0,"AIS","N/A    ","OK ","OK ",    000733.182,    -051.178,    0156.519,    0014.651,    0040.147
"FRM_AIS_EDR_2077.DAT           ",2005-08-27T07:33:57.31 ,"1/0073208032.12765",    0,   48,  274896,"AIS","B1","B1","B0","B0","PISd",0,0,0,0,"B1", 0,15,   0, 0,    0,"AIS","N/A    ","OK ","OK ",    000724.835,    -050.778,    0156.549,    0014.655,    0040.007
"FRM_AIS_EDR_2077.DAT           ",2005-08-27T07:34:04.85 ,"1/0073208039.48365",    0,   49,  274896,"AIS","B1","B1","B0","B0","PISd",0,0,0,0,"B1", 0,15,   0, 0,    0,"AIS","N/A    ","OK ","OK ",    000716.547,    -050.376,    0156.577,    0014.659,    0039.870
"FRM_AIS_EDR_2077.DAT           ",2005-08-27T07:34:12.40 ,"1/0073208047.18428",    0,   50,  274896,"AIS","B1","B1","B0","B0","PISd",0,0,0,0,"B1", 0,15,   0, 0,    0,"AIS","N/A    ","OK ","OK ",    000708.317,    -049.972,    0156.605,    0014.663,    0039.735
"FRM_AIS_EDR_2077.DAT           ",2005-08-27T07:34:19.94 ,"1/0073208054.54027",    0,   51,  274896,"AIS","B1","B1","B0","B0","PISd",0,0,0,0,"B1", 0,15,   0, 0,    0,"AIS","N/A    ","OK ","OK ",    000700.147,    -049.567,    0156.632,    0014.667,    0039.603
"FRM_AIS_EDR_2077.DAT           ",2005-08-27T07:34:27.48 ,"1/0073208062.24091",    0,   52,  274896,"AIS","B1","B1","B0","B0","PISd",0,0,0,0,"B1", 0,15,   0, 0,    0,"AIS","N/A    ","OK ","OK ",    000692.037,    -049.160,    0156.658,    0014.671,    0039.474
"FRM_AIS_EDR_2077.DAT           ",2005-08-27T07:34:35.03 ,"1/0073208069.59690",    0,   53,  274896,"AIS","B1","B1","B0","B0","PISd",0,0,0,0,"B1", 0,15,   0, 0,    0,"AIS","N/A    ","OK ","OK ",    000683.987,    -048.752,    0156.684,    0014.674,    0039.347
"FRM_AIS_EDR_2077.DAT           ",2005-08-27T07:34:42.57 ,"1/0073208077.29753",    0,   54,  274896,"AIS","B1","B1","B0","B0","PISd",0,0,0,0,"B1", 0,15,   0, 0,    0,"AIS","N/A    ","OK ","OK ",    000675.999,    -048.341,    0156.709,    0014.678,    0039.223
"FRM_AIS_EDR_2077.DAT           ",2005-08-27T07:34:50.11 ,"1/0073208084.65353",    0,   55,  274896,"AIS","B1","B1","B0","B0","PISd",0,0,0,0,"B1", 0,15,   0, 0,    0,"AIS","N/A    ","OK ","OK ",    000668.073,    -047.930,    0156.733,    0014.682,    0039.101
"FRM_AIS_EDR_2077.DAT           ",2005-08-27T07:34:57.65 ,"1/0073208092.35416",    0,   56,  274896,"AIS","B1","B1","B0","B0","PISd",0,0,0,0,"B1", 0,15,   0, 0,    0,"AIS","N/A    ","OK ","OK ",    000660.211,    -047.516,    0156.756,    0014.685,    0038.983
"FRM_AIS_EDR_2077.DAT           ",2005-08-27T07:35:05.20 ,"1/0073208100.05479",    0,   57,  274896,"AIS","B1","B1","B0","B0","PISd",0,0,0,0,"B1", 0,15,   0, 0,    0,"AIS","N/A    ","OK ","OK ",    000652.411,    -047.102,    0156.779,    0014.689,    0038.868
"FRM_AIS_EDR_2077.DAT           ",2005-08-27T07:35:12.74 ,"1/0073208107.41079",    0,   58,  274896,"AIS","B1","B1","B0","B0","PISd",0,0,0,0,"B1", 0,15,   0, 0,    0,"AIS","N/A    ","OK ","OK ",    000644.676,    -046.685,    0156.801,    0014.692,    0038.755
"FRM_AIS_EDR_2077.DAT           ",2005-08-27T07:35:20.28 ,"1/0073208115.11142",    0,   59,  274896,"AIS","B1","B1","B0","B0","PISd",0,0,0,0,"B1", 0,15,   0, 0,    0,"AIS","N/A    ","OK ","OK ",    000637.005,    -046.267,    0156.823,    0014.696,    0038.646
"FRM_AIS_EDR_2077.DAT           ",2005-08-27T07:35:27.83 ,"1/0073208122.46741",    0,   60,  274896,"AIS","B1","B1","B0","B0","PISd",0,0,0,0,"B1", 0,15,   0, 0,    0,"AIS","N/A    ","OK ","OK ",    000629.401,    -045.847,    0156.844,    0014.699,    0038.540
"FRM_AIS_EDR_2077.DAT           ",2005-08-27T07:35:35.37 ,"1/0073208130.16805",    0,   61,  274896,"AIS","B1","B1","B0","B0","PISd",0,0,0,0,"B1", 0,15,   0, 0,    0,"AIS","N/A    ","OK ","OK ",    000621.862,    -045.426,    0156.865,    0014.703,    0038.437
"FRM_AIS_EDR_2077.DAT           ",2005-08-27T07:35:42.91 ,"1/0073208137.52404",    0,   62,  274896,"AIS","B1","B1","B0","B0","PISd",0,0,0,0,"B1", 0,15,   0, 0,    0,"AIS","N/A    ","OK ","OK ",    000614.390,    -045.003,    0156.884,    0014.706,    0038.337
"FRM_AIS_EDR_2077.DAT           ",2005-08-27T07:35:50.46 ,"1/0073208145.22467",    0,   63,  274896,"AIS","B1","B1","B0","B0","PISd",0,0,0,0,"B1", 0,15,   0, 0,    0,"AIS","N/A    ","OK ","OK ",    000606.986,    -044.579,    0156.904,    0014.709,    0038.241
"FRM_AIS_EDR_2077.DAT           ",2005-08-27T07:35:58.00 ,"1/0073208152.58067",    0,   64,  274896,"AIS","B1","B1","B0","B0","PISd",0,0,0,0,"B1", 0,15,   0, 0,    0,"AIS","N/A    ","OK ","OK ",    000599.650,    -044.153,    0156.922,    0014.713,    0038.148
"FRM_AIS_EDR_2077.DAT           ",2005-08-27T07:36:05.54 ,"1/0073208160.28130",    0,   65,  274896,"AIS","B1","B1","B0","B0","PISd",0,0,0,0,"B1", 0,15,   0, 0,    0,"AIS","N/A    ","OK ","OK ",    000592.383,    -043.725,    0156.941,    0014.716,    0038.059
"FRM_AIS_EDR_2077.DAT           ",2005-08-27T07:36:13.09 ,"1/0073208167.63729",    0,   66,  274896,"AIS","B1","B1","B0","B0","PISd",0,0,0,0,"B1", 0,15,   0, 0,    0,"AIS","N/A    ","OK ","OK ",    000585.186,    -043.296,    0156.958,    0014.719,    0037.973
"FRM_AIS_EDR_2077.DAT           ",2005-08-27T07:36:20.63 ,"1/0073208175.33793",    0,   67,  274896,"AIS","B1","B1","B0","B0","PISd",0,0,0,0,"B1", 0,15,   0, 0,    0,"AIS","N/A    ","OK ","OK ",    000578.059,    -042.865,    0156.976,    0014.722,    0037.892
"FRM_AIS_EDR_2077.DAT           ",2005-08-27T07:36:28.17 ,"1/0073208183.03856",    0,   68,  274896,"AIS","B1","B1","B0","B0","PISd",0,0,0,0,"B1", 0,15,   0, 0,    0,"AIS","N/A    ","OK ","OK ",    000571.003,    -042.433,    0156.992,    0014.725,    0037.813
"FRM_AIS_EDR_2077.DAT           ",2005-08-27T07:36:35.72 ,"1/0073208190.39455",    0,   69,  274896,"AIS","B1","B1","B0","B0","PISd",0,0,0,0,"B1", 0,15,   0, 0,    0,"AIS","N/A    ","OK ","OK ",    000564.019,    -042.000,    0157.008,    0014.728,    0037.739
"FRM_AIS_EDR_2077.DAT           ",2005-08-27T07:36:43.26 ,"1/0073208198.09519",    0,   70,  274896,"AIS","B1","B1","B0","B0","PISd",0,0,0,0,"B1", 0,15,   0, 0,    0,"AIS","N/A    ","OK ","OK ",    000557.107,    -041.564,    0157.024,    0014.732,    0037.669
"FRM_AIS_EDR_2077.DAT           ",2005-08-27T07:36:50.80 ,"1/0073208205.45118",    0,   71,  274896,"AIS","B1","B1","B0","B0","PISd",0,0,0,0,"B1", 0,15,   0, 0,    0,"AIS","N/A    ","OK ","OK ",    000550.268,    -041.128,    0157.039,    0014.735,    0037.603
"FRM_AIS_EDR_2077.DAT           ",2005-08-27T07:36:58.35 ,"1/0073208213.15181",    0,   72,  274896,"AIS","B1","B1","B0","B0","PISd",0,0,0,0,"B1", 0,15,   0, 0,    0,"AIS","N/A    ","OK ","OK ",    000543.503,    -040.689,    0157.054,    0014.738,    0037.540
"FRM_AIS_EDR_2077.DAT           ",2005-08-27T07:37:05.89 ,"1/0073208220.50780",    0,   73,  274896,"AIS","B1","B1","B0","B0","PISd",0,0,0,0,"B1", 0,15,   0, 0,    0,"AIS","N/A    ","OK ","OK ",    000536.812,    -040.250,    0157.069,    0014.741,    0037.482
"FRM_AIS_EDR_2077.DAT           ",2005-08-27T07:37:13.43 ,"1/0073208228.20844",    0,   74,  274896,"AIS","B1","B1","B0","B0","PISd",0,0,0,0,"B1", 0,15,   0, 0,    0,"AIS","N/A    ","OK ","OK ",    000530.197,    -039.808,    0157.083,    0014.744,    0037.428
"FRM_AIS_EDR_2077.DAT           ",2005-08-27T07:37:20.98 ,"1/0073208235.56443",    0,   75,  274896,"AIS","B1","B1","B0","B0","PISd",0,0,0,0,"B1", 0,15,   0, 0,    0,"AIS","N/A    ","OK ","OK ",    000523.657,    -039.366,    0157.096,    0014.747,    0037.378
"FRM_AIS_EDR_2077.DAT           ",2005-08-27T07:37:28.52 ,"1/0073208243.26506",    0,   76,  274896,"AIS","B1","B1","B0","B0","PISd",0,0,0,0,"B1", 0,15,   0, 0,    0,"AIS","N/A    ","OK ","OK ",    000517.193,    -038.922,    0157.109,    0014.749,    0037.333
"FRM_AIS_EDR_2077.DAT           ",2005-08-27T07:37:36.06 ,"1/0073208250.62106",    0,   77,  274896,"AIS","B1","B1","B0","B0","PISd",0,0,0,0,"B1", 0,15,   0, 0,    0,"AIS","N/A    ","OK ","OK ",    000510.807,    -038.476,    0157.122,    0014.752,    0037.292
"FRM_AIS_EDR_2077.DAT           ",2005-08-27T07:37:43.61 ,"1/0073208258.32169",    0,   78,  274896,"AIS","B1","B1","B0","B0","PISd",0,0,0,0,"B1", 0,15,   0, 0,    0,"AIS","N/A    ","OK ","OK ",    000504.498,    -038.029,    0157.134,    0014.755,    0037.255
"FRM_AIS_EDR_2077.DAT           ",2005-08-27T07:37:51.15 ,"1/0073208266.02232",    0,   79,  274896,"AIS","B1","B1","B0","B0","PISd",0,0,0,0,"B1", 0,15,   0, 0,    0,"AIS","N/A    ","OK ","OK ",    000498.268,    -037.581,    0157.146,    0014.758,    0037.223
"FRM_AIS_EDR_2077.DAT           ",2005-08-27T07:37:58.69 ,"1/0073208273.37832",    0,   80,  274896,"AIS","B1","B1","B0","B0","PISd",0,0,0,0,"B1", 0,15,   0, 0,    0,"AIS","N/A    ","OK ","OK ",    000492.117,    -037.131,    0157.157,    0014.761,    0037.196
"FRM_AIS_EDR_2077.DAT           ",2005-08-27T07:38:06.23 ,"1/0073208281.07895",    0,   81,  274896,"AIS","B1","B1","B0","B0","PISd",0,0,0,0,"B1", 0,15,   0, 0,    0,"AIS","N/A    ","OK ","OK ",    000486.046,    -036.679,    0157.169,    0014.764,    0037.173
"FRM_AIS_EDR_2077.DAT           ",2005-08-27T07:38:13.78 ,"1/0073208288.43494",    0,   82,  274896,"AIS","B1","B1","B0","B0","PISd",0,0,0,0,"B1", 0,15,   0, 0,    0,"AIS","N/A    ","OK ","OK ",    000480.055,    -036.227,    0157.179,    0014.766,    0037.155
"FRM_AIS_EDR_2077.DAT           ",2005-08-27T07:38:21.32 ,"1/0073208296.13558",    0,   83,  274896,"AIS","B1","B1","B0","B0","PISd",0,0,0,0,"B1", 0,15,   0, 0,    0,"AIS","N/A    ","OK ","OK ",    000474.145,    -035.773,    0157.190,    0014.769,    0037.141
"FRM_AIS_EDR_2077.DAT           ",2005-08-27T07:38:28.86 ,"1/0073208303.49157",    0,   84,  274896,"AIS","B1","B1","B0","B0","PISd",0,0,0,0,"B1", 0,15,   0, 0,    0,"AIS","N/A    ","OK ","OK ",    000468.317,    -035.317,    0157.200,    0014.772,    0037.133
"FRM_AIS_EDR_2077.DAT           ",2005-08-27T07:38:36.41 ,"1/0073208311.19220",    0,   85,  274896,"AIS","B1","B1","B0","B0","PISd",0,0,0,0,"B1", 0,15,   0, 0,    0,"AIS","N/A    ","OK ","OK ",    000462.572,    -034.861,    0157.210,    0014.774,    0037.129
"FRM_AIS_EDR_2077.DAT           ",2005-08-27T07:38:43.95 ,"1/0073208318.54820",    0,   86,  274896,"AIS","B1","B1","B0","B0","PISd",0,0,0,0,"B1", 0,15,   0, 0,    0,"AIS","N/A    ","OK ","OK ",    000456.909,    -034.403,    0157.219,    0014.777,    0037.130
"FRM_AIS_EDR_2077.DAT           ",2005-08-27T07:38:51.49 ,"1/0073208326.24883",    0,   87,  274896,"AIS","B1","B1","B0","B0","PISd",0,0,0,0,"B1", 0,15,   0, 0,    0,"AIS","N/A    ","OK ","OK ",    000451.330,    -033.943,    0157.228,    0014.780,    0037.136
"FRM_AIS_EDR_2077.DAT           ",2005-08-27T07:38:59.04 ,"1/0073208333.60482",    0,   88,  274896,"AIS","B1","B1","B0","B0","PISd",0,0,0,0,"B1", 0,15,   0, 0,    0,"AIS","N/A    ","OK ","OK ",    000445.836,    -033.482,    0157.237,    0014.783,    0037.147
"FRM_AIS_EDR_2077.DAT           ",2005-08-27T07:39:06.58 ,"1/0073208341.30546",    0,   89,  274896,"AIS","B1","B1","B0","B0","PISd",0,0,0,0,"B1", 0,15,   0, 0,    0,"AIS","N/A    ","OK ","OK ",    000440.426,    -033.020,    0157.245,    0014.785,    0037.163
"FRM_AIS_EDR_2077.DAT           ",2005-08-27T07:39:14.12 ,"1/0073208349.00609",    0,   90,  274896,"AIS","B1","B1","B0","B0","PISd",0,0,0,0,"B1", 0,15,   0, 0,    0,"AIS","N/A    ","OK ","OK ",    000435.102,    -032.557,    0157.253,    0014.787,    0037.184